Weather History for Kaneohe MCBH, HI

Change the Weather History Date:

Saturday, April 5, 2014

  Actual Average Record
Temperature  
Mean Temperature 76 °F -  
Max Temperature 80 °F 76 °F 80 °F (2014)
Min Temperature 71 °F 68 °F 63 °F (2007)
Cooling Degree Days 10    
Growing Degree Days 26 (Base 50)    
Moisture  
Dew Point 63 °F    
Average Humidity 64    
Maximum Humidity 72    
Minimum Humidity 55    
Precipitation  
Precipitation 0.00 in - - ()
Sea Level Pressure  
Sea Level Pressure 30.00 in    
Wind  
Wind Speed 5 mph (NE)    
Max Wind Speed 10 mph    
Max Gust Speed -    
Visibility 7 miles    
Events      
Averages and records for this station are not official NWS values.
T = Trace of Precipitation, MM = Missing Value Source: NWS Daily Summary

Daily Weather History Graph

Daily Weather History Graph

Search for Another Location

Airport:

Trip Planner

Search our weather history database for the weather conditions in past years. The results will help you decide how hot, cold, wet, or windy it might be!

Date:

Astronomy

Apr. 05, 2014 Rise Set
Actual Time 6:20 AM HST 6:47 PM HST
Civil Twilight 5:57 AM HST 7:09 PM HST
Nautical Twilight 5:31 AM HST 7:35 PM HST
Astronomical Twilight 5:05 AM HST 8:02 PM HST
Moon 11:02 AM HST (4/5) No Moon Set
Length of Visible Light 13h 11m
Length of Day
12h 27m
Waxing Crescent, 36% of the Moon is Illuminated
Apr 5
Waxing Crescent
Apr 6
First Quarter
Apr 14
Full
Apr 21
Last Quarter
Apr 28
New

Hourly Weather History & Observations

Time (HST) Temp. Heat Index Dew Point Humidity Pressure Visibility Wind Dir Wind Speed Gust Speed Precip Events Conditions
12:08 AM - - - N/A% 30.04 in 6.0 mi East 6.9 mph - N/A   Overcast
12:20 AM 75.2 °F - 62.6 °F 65% 30.04 in 6.0 mi East 5.8 mph - N/A   Overcast
12:57 AM 75.2 °F - 62.1 °F 64% 30.02 in 6.0 mi East 10.4 mph - N/A   Overcast
1:57 AM - - - N/A% 30.00 in 6.0 mi Variable 4.6 mph - N/A   Overcast
2:57 AM 73.4 °F - 62.1 °F 68% 29.98 in 7.0 mi East 4.6 mph - N/A   Mostly Cloudy
3:57 AM 71.6 °F - 62.1 °F 72% 29.98 in 7.0 mi East 3.5 mph - N/A   Overcast
4:57 AM 71.6 °F - 62.1 °F 72% 29.97 in 7.0 mi East 3.5 mph - N/A   Partly Cloudy
5:57 AM 71.6 °F - 62.1 °F 72% 29.97 in 7.0 mi Variable 3.5 mph - N/A   Overcast
6:57 AM 71.6 °F - 62.1 °F 72% 29.99 in 7.0 mi ENE 3.5 mph - N/A   Mostly Cloudy
7:19 AM 73.4 °F - 62.6 °F 69% 30.00 in 6.2 mi Variable 4.6 mph - N/A   Mostly Cloudy
7:26 AM 73.4 °F - 62.6 °F 69% 30.00 in 6.2 mi East 5.8 mph - N/A   Overcast
7:57 AM 73.4 °F - 62.1 °F 68% 30.00 in 7.0 mi ESE 4.6 mph - N/A   Mostly Cloudy
8:45 AM 75.2 °F - 62.6 °F 65% 30.02 in 6.2 mi Calm Calm - N/A   Overcast
8:57 AM 78.8 °F - 63.0 °F 58% 30.01 in 7.0 mi Variable 4.6 mph - N/A   Overcast
9:57 AM 78.8 °F - 64.9 °F 62% 30.01 in 7.0 mi ENE 6.9 mph - N/A   Mostly Cloudy
10:04 AM 78.8 °F - 62.6 °F 57% 30.02 in 6.2 mi NE 5.8 mph - N/A   Partly Cloudy
10:57 AM 78.8 °F - 63.0 °F 58% 30.01 in 7.0 mi ENE 8.1 mph - N/A   Clear
11:57 AM 78.8 °F - 64.0 °F 60% 30.00 in 7.0 mi NE 6.9 mph - N/A   Partly Cloudy
12:57 PM 78.8 °F - 62.1 °F 56% 29.98 in 7.0 mi NE 6.9 mph - N/A   Mostly Cloudy
1:57 PM 78.8 °F - 62.1 °F 56% 29.95 in 7.0 mi NE 6.9 mph - N/A   Mostly Cloudy
2:57 PM 80.6 °F 81.9 °F 63.0 °F 55% 29.94 in 7.0 mi NNE 8.1 mph - N/A   Overcast
3:57 PM 78.8 °F - 63.0 °F 58% 29.94 in 7.0 mi NNE 3.5 mph - N/A   Overcast
4:57 PM 78.8 °F - 64.0 °F 60% 29.95 in 7.0 mi WNW 3.5 mph - N/A   Overcast
5:57 PM 77.0 °F - 63.0 °F 62% 29.96 in 7.0 mi NW 4.6 mph - N/A   Mostly Cloudy
6:57 PM 77.0 °F - 62.1 °F 60% 29.98 in 7.0 mi North 5.8 mph - N/A   Overcast
7:57 PM 75.2 °F - 63.0 °F 66% 29.99 in 7.0 mi North 6.9 mph - N/A   Mostly Cloudy
8:57 PM 73.4 °F - 62.1 °F 68% 30.02 in 6.0 mi NW 3.5 mph - N/A   Haze
9:57 PM 73.4 °F - 63.0 °F 70% 30.04 in 7.0 mi West 3.5 mph - N/A   Clear
10:57 PM 73.4 °F - 63.0 °F 70% 30.03 in 7.0 mi SW 3.5 mph - N/A   Clear
11:57 PM 73.4 °F - 63.0 °F 70% 30.02 in 7.0 mi Calm Calm - N/A   Clear